Regional Weather Roundup
Issued by NWS

Home | Current Version | Previous Version | Graphics & Text | Print | Product List | Glossary On
Versions: 1 2 3 4 5 6 7 8 9 10 11 12 13 14 15 16 17 18 19 20 21 22 23 24 25 26 27 28 29 30 31 32 33 34 35 36 37 38 39 40 41 42 43 44 45 46 47 48 49 50
000
ASUS43 KMPX 181610
RWRMN
WEATHER ROUNDUP FOR MINNESOTA
NATIONAL WEATHER SERVICE TWIN CITIES/CHANHASSEN MN
1000 AM CST THU DEC 18 2014


NOTE: "FAIR" INDICATES FEW OR NO CLOUDS BELOW 12,000 FEET WITH NO
SIGNIFICANT WEATHER AND/OR OBSTRUCTIONS TO VISIBILITY. N/A MEANS
CURRENT SKY AND/OR WEATHER CONDITIONS ARE NOT AVAILABLE.

MNZ060>063-068>070-181700-
   Twin Cities Metro

CITY           SKY/WX    TMP DP  RH WIND       PRES   REMARKS
TWIN CITIES    LGT SNOW  17  13  84 SW3       30.32R FOG
ST PAUL        CLOUDY    21  16  81 S3        30.33S
CRYSTAL        CLOUDY    20  16  84 CALM      30.31R FOG
BLAINE         LGT SNOW  21  19  93 E5        30.30S WCI  15
LAKEVILLE      LGT SNOW  18  16  93 S3        30.31R
EDEN PRAIRIE   CLOUDY    16  12  84 CALM      30.31R FOG
SOUTH ST PAUL  CLOUDY    20  16  84 CALM      30.32S
LAKE ELMO      CLOUDY    21  19  93 SW3       30.32R
$$
MNZ001>005-007-008-013>017-022>024-027-028-181700-
   Northwest Minnesota

CITY           SKY/WX    TMP DP  RH WIND       PRES   REMARKS
BEMIDJI        MOSUNNY   11   8  88 SE5       30.25S WCI   3
HALLOCK        MOSUNNY   10   7  85 SE5       30.23F WCI   2
ROSEAU         FAIR      14   9  79 SE5       30.24F WCI   6
WARROAD        SUNNY      9   5  85 CALM      30.26S
THIEF RVR FALL MOSUNNY   12  10  92 SE7       30.24S WCI   2
CROOKSTON      MOSUNNY   12   9  85 S8        30.26S WCI   1
FOSSTON        MOSUNNY   14  12  92 SE3       30.24S
DETROIT LAKES  SUNNY     12  10  92 SE8       30.24S WCI   1
MOORHEAD       MOSUNNY   14  12  92 S10       30.26R WCI   1
PARK RAPIDS    MOSUNNY   12   8  84 SE7       30.24R WCI   1
MAHNOMEN       FAIR      13   9  83 S6        30.24S WCI   4
$$
MNZ006-009>011-018-025>026-181700-
   North Central Minnesota

CITY           SKY/WX    TMP DP  RH WIND       PRES   REMARKS
BAUDETTE       PTSUNNY    8   4  83 SE3       30.26F
FLAG ISLAND    MOSUNNY    9   3  78 SE7       30.26S WCI  -3
INTL FALLS     SUNNY     10   5  80 SE5       30.29F WCI   2
WASKISH        PTSUNNY   12  10  92 CALM      30.27S
BIG FORK       FLURRIES  10   7  85 S5        30.29S WCI   2
LONGVILLE      LGT SNOW  10   9  92 CALM      30.28R
GRAND RAPIDS   CLOUDY    12   9  85 CALM      30.27S
CRANE LAKE     CLOUDY    10   9  92 CALM      30.33S
ORR            LGT SNOW  16  12  86 CALM      30.27S
COOK           CLOUDY    16  12  86 CALM      30.29S
WALKER         LGT SNOW   9   6  89 CALM      30.27R
$$
MNZ012-019>021-037-181700-
   Northeast Minnesota

CITY           SKY/WX    TMP DP  RH WIND       PRES   REMARKS
DULUTH         CLOUDY    21  16  81 N3        30.26S
ELY            CLOUDY    12  10  92 CALM      30.29S
HIBBING        CLOUDY    18  13  80 CALM      30.28S
EVELETH        FLURRIES  19  16  86 CALM      30.29S
DULUTH HARBOR  CLOUDY    25  21  86 CALM      30.33R
TWO HARBORS    CLOUDY    27  21  80 NE5       30.27S WCI  21
SILVER BAY     CLOUDY    25  21  86 NE6       30.28S WCI  18
GRAND MARAIS     N/A     23  12  62 CALM      30.36R
G MARAIS ARPRT PTSUNNY   10   1  67 CALM      30.26S
$$
MNZ029>031-032-039>041-046>048-054>057-064-181700-
   West Central Minnesota

CITY           SKY/WX    TMP DP  RH WIND       PRES   REMARKS
FERGUS FALLS   MOSUNNY   12   9  85 S12       30.28F WCI  -2
WHEATON        PTSUNNY   10   9  92 SE6       30.28R WCI   1
MORRIS         CLOUDY    12  10  92 SE8       30.25S FOG     WCI   1
ALEXANDRIA     SUNNY     12   9  87 SE9       30.25S WCI   0
ELBOW LAKE     FAIR      12   9  89 SE12      30.25S WCI  -2
WADENA         SUNNY     10   9  92 NW5       30.25R WCI   2
GLENWOOD       SUNNY     12  10  92 SE6       30.26S WCI   3
APPLETON       CLOUDY    14  10  85 CALM      30.27F
BENSON         CLOUDY    12  10  92 S7        30.28S WCI   2
ORTONVILLE     CLOUDY    12   9  85 SE7       30.25R WCI   2
MADISON        PTSUNNY   18  16  93 SE5       30.27S WCI  11
WILLMAR        FAIR      12   9  85 SE6       30.29S WCI   3
$$
MNZ033>034-036-042>043-049>051-058-059-181700-
   Central Minnesota

CITY           SKY/WX    TMP DP  RH WIND       PRES   REMARKS
ST CLOUD       LGT SNOW  17  12  80 CALM      30.30R VSB 1
SAUK CENTRE    FAIR      11   9  91 CALM      30.28S
PAYNESVILLE    SUNNY     12  10  93 E5        30.29S WCI   4
AITKIN         LGT SNOW  18  12  79 CALM      30.27S
PINE RIVER     LGT SNOW  12  10  92 CALM      30.30S
BRAINERD       CLOUDY    15  11  83 CALM      30.29R FOG
STAPLES        CLOUDY    10   9  92 SE3       30.27R
LONG PRAIRIE   FAIR      12  10  92 NW5       30.27S WCI   4
LITTLE FALLS   LGT SNOW  14  10  85 CALM      30.30R
LITCHFIELD     SUNNY     14  12  92 CALM      30.30R
BUFFALO        LGT SNOW  15  12  87 CALM      30.32S
MAPLE LAKE     LGT SNOW  16  15  93 CALM      30.31S
$$
MNZ037-044-045-052-053-181700-
   East Central Minnesota

CITY           SKY/WX    TMP DP  RH WIND       PRES   REMARKS
PRINCETON      LGT SNOW  19  18  93 CALM      30.30S
MORA           CLOUDY    19  16  86 CALM      30.31S
CAMBRIDGE      LGT SNOW  21  14  73 CALM      30.29S
RUSH CITY      CLOUDY    20  17  88 CALM      30.31R
MOOSE LAKE     CLOUDY    21  18  86 CALM      30.28R
HINCKLEY       CLOUDY    21  19  93 CALM      30.30R
CLOQUET        CLOUDY    19  18  93 N3        30.27S
MCGREGOR       CLOUDY    19  18  93 CALM      30.29R
$$
MNZ071>073-080-081-089-090-097-098-181700-
   Southwest Minnesota

CITY           SKY/WX    TMP DP  RH WIND       PRES   REMARKS
MONTEVIDEO     CLOUDY    12  10  92 CALM      30.29S
GRANITE FALLS  CLOUDY    12  10  91 SE3       30.30S
CANBY          CLOUDY    16  14  92 SE5       30.26S WCI   9
MARSHALL       CLOUDY    14  10  85 CALM      30.26R
REDWOOD FALLS  MOSUNNY   13  10  88 CALM      30.29F
OLIVIA         CLOUDY    16  12  86 SE5       30.29S FOG     WCI   9
PIPESTONE      CLOUDY    18  16  93 CALM      30.20S
WINDOM         CLOUDY    18  16  93 CALM      30.25S
WORTHINGTON    CLOUDY    18  18 100 S5        30.24S WCI  11
JACKSON        CLOUDY    19  18  93 S3        30.25S
TRACY          CLOUDY    19  17  92 CALM      30.25F
SLAYTON        CLOUDY    18  17  95 CALM      30.23S
$$
MNZ065>067-074>077-082>085-091>093-181700-
   South Central Minnesota

CITY           SKY/WX    TMP DP  RH WIND       PRES   REMARKS
MANKATO        PTSUNNY   16  10  79 S3        30.30R
NEW ULM        CLOUDY    18  14  86 CALM      30.30S
ST JAMES       PTSUNNY   18  16  93 CALM      30.30S
FAIRMONT       PTSUNNY   18  12  79 SE5       30.27S WCI  11
GLENCOE        MOSUNNY   14  12  92 CALM      30.30S
FARIBAULT      CLOUDY    18  12  79 CALM      30.30S
OWATONNA       PTSUNNY   18  12  79 SE3       30.29R
WASECA         PTSUNNY   18  14  86 SE3       30.31R
ALBERT LEA     MOSUNNY   18  16  93 S3        30.28S FOG
$$
MNZ078>079-086>088-094>096-181700-
   Southeast Minnesota

CITY           SKY/WX    TMP DP  RH WIND       PRES   REMARKS
ROCHESTER      CLOUDY    18  14  84 SE6       30.29R WCI  10
RED WING       CLOUDY    19  16  86 CALM      30.32R
STANTON        LGT SNOW  18  14  85 CALM      30.30S
DODGE CENTER   FLURRIES  16  12  86 CALM      30.28R
WINONA         CLOUDY    23  18  80 CALM      30.33S
AUSTIN         LGT SNOW  18  14  86 CALM      30.28S
PRESTON        CLOUDY    17  14  88 CALM      30.29R
$$
ABBREVIATIONS USED IN REMARKS
   TC - TEMPERATURES IN CELSIUS
  WCI - WIND CHILL INDEX
   HX - HEAT INDEX
  VSB - VISIBILITY
$$



USA.gov is the U.S. government's official web portal to all federal, state and local government web resources and services.